Location: Asheville, NC
(35.6000°N, 82.5500°W)
Time: 11:54:29

Vanguard 2 Rocket - Pass Details

Date: 14 December 2017
Orbit: 554 x 3327 km, 32.9° (Epoch: 20 March)

Event Time Altitude Azimuth Distance (km) Brightness Sun altitude
Rises 00:05:03 0° 280° (W) 6,445 11.3 -76.9°
Reaches altitude 10° 00:08:54 10° 278° (W) 5,690 10.9 -77.1°
Enters shadow 00:09:06 11° 278° (W) 5,653 10.9 -77.2°
Maximum altitude 00:27:39 69° 201° (SSW) 3,481 - -77.6°
Drops below altitude 10° 00:46:32 10° 123° (ESE) 5,709 - -76.8°
Exits shadow 00:49:46 - 121° (ESE) 6,336 11.2 -76.5°
Sets 00:50:25 0° 121° (ESE) 6,466 11.2 -76.4°
